Satellite: DTUSAT-2 Catalog number: 40030 Epoch time: 15085.45194396 Element set: 999 Inclination: 097.9580 deg RA of node: 345.3847 deg Eccentricity: 0.0014060 Arg of perigee: 088.4471 deg Mean anomaly: 271.8317 deg Mean motion: 14.86364134 rev/day Decay rate: 2.461e-05 rev/day^2 Epoch rev: 4149 Checksum: 320
Satellite: ANTELSAT Catalog number: 40034 Epoch time: 15085.62060673 Element set: 999 Inclination: 097.9532 deg RA of node: 339.4532 deg Eccentricity: 0.0061142 Arg of perigee: 025.3590 deg Mean anomaly: 335.0578 deg Mean motion: 14.72405808 rev/day Decay rate: 1.986e-05 rev/day^2 Epoch rev: 4114 Checksum: 301
/EX SB KEPS @ AMSAT $ORB15085.W Orbital Elements 15085.WEATHER
HR AMSAT ORBITAL ELEMENTS FOR WEATHER SATELLITES FROM WA5QGD FORT WORTH,TX March 26, 2015 BID: ORB15085.W TO ALL RADIO AMATEURS BT
Satellite: MET-2/21 Catalog number: 22782 Epoch time: 15085.15302983 Element set: 999 Inclination: 082.5485 deg RA of node: 309.5689 deg Eccentricity: 0.0021983 Arg of perigee: 190.9687 deg Mean anomaly: 282.6211 deg Mean motion: 13.83763946 rev/day Decay rate: 7.0e-08 rev/day^2 Epoch rev: 8911 Checksum: 348
Satellite: OKEAN-4 Catalog number: 23317 Epoch time: 15085.22402402 Element set: 999 Inclination: 082.5401 deg RA of node: 163.3451 deg Eccentricity: 0.0018920 Arg of perigee: 242.1922 deg Mean anomaly: 131.0646 deg Mean motion: 14.86455683 rev/day Decay rate: 1.702e-05 rev/day^2 Epoch rev: 10499 Checksum: 280
Satellite: NOAA-14 Catalog number: 23455 Epoch time: 15085.49315652 Element set: 999 Inclination: 098.7549 deg RA of node: 168.6363 deg Eccentricity: 0.0008693 Arg of perigee: 320.9340 deg Mean anomaly: 169.4392 deg Mean motion: 14.14029430 rev/day Decay rate: 4.8e-07 rev/day^2 Epoch rev: 4384 Checksum: 331
Satellite: NOAA-15 Catalog number: 25338 Epoch time: 15085.47870935 Element set: 999 Inclination: 098.7711 deg RA of node: 084.0703 deg Eccentricity: 0.0011544 Arg of perigee: 052.7964 deg Mean anomaly: 307.4267 deg Mean motion: 14.25586023 rev/day Decay rate: 2.49e-06 rev/day^2 Epoch rev: 87705 Checksum: 336
Satellite: RESURS Catalog number: 25394 Epoch time: 15084.96951248 Element set: 999 Inclination: 098.4560 deg RA of node: 043.0956 deg Eccentricity: 0.0002072 Arg of perigee: 125.0620 deg Mean anomaly: 274.8705 deg Mean motion: 14.24448390 rev/day Decay rate: 5.4e-07 rev/day^2 Epoch rev: 86843 Checksum: 318
Satellite: FENGYUN1 Catalog number: 25730 Epoch time: 15084.84792269 Element set: 999 Inclination: 098.9383 deg RA of node: 049.7729 deg Eccentricity: 0.0020569 Arg of perigee: 029.7767 deg Mean anomaly: 028.0792 deg Mean motion: 14.13096677 rev/day Decay rate: 1.791e-05 rev/day^2 Epoch rev: 81728 Checksum: 372
Satellite: OKEAN-0 Catalog number: 25860 Epoch time: 15085.88144281 Element set: 999 Inclination: 098.0852 deg RA of node: 053.8449 deg Eccentricity: 0.0001079 Arg of perigee: 105.2961 deg Mean anomaly: 307.2692 deg Mean motion: 14.75899182 rev/day Decay rate: 1.168e-05 rev/day^2 Epoch rev: 84384 Checksum: 344
Satellite: NOAA-16 Catalog number: 26536 Epoch time: 15085.46411772 Element set: 999 Inclination: 098.9506 deg RA of node: 151.4894 deg Eccentricity: 0.0011592 Arg of perigee: 105.9788 deg Mean anomaly: 254.2662 deg Mean motion: 14.13083254 rev/day Decay rate: 5.3e-07 rev/day^2 Epoch rev: 74797 Checksum: 343
Satellite: NOAA-17 Catalog number: 27453 Epoch time: 15085.49837423 Element set: 999 Inclination: 098.3351 deg RA of node: 075.6130 deg Eccentricity: 0.0012910 Arg of perigee: 067.9930 deg Mean anomaly: 292.2621 deg Mean motion: 14.24864107 rev/day Decay rate: 1.20e-06 rev/day^2 Epoch rev: 66288 Checksum: 317
Satellite: NOAA-18 Catalog number: 28654 Epoch time: 15085.44999680 Element set: 999 Inclination: 099.1800 deg RA of node: 076.0956 deg Eccentricity: 0.0014078 Arg of perigee: 188.6814 deg Mean anomaly: 171.4116 deg Mean motion: 14.12167591 rev/day Decay rate: 1.97e-06 rev/day^2 Epoch rev: 50739 Checksum: 354
Satellite: NOAA-19 Catalog number: 33591 Epoch time: 15085.46732678 Element set: 999 Inclination: 098.9817 deg RA of node: 035.1863 deg Eccentricity: 0.0014900 Arg of perigee: 046.2367 deg Mean anomaly: 314.0035 deg Mean motion: 14.11897813 rev/day Decay rate: 2.78e-06 rev/day^2 Epoch rev: 31581 Checksum: 334
/EX SB KEPS @ AMSAT $ORB15085.M Orbital Elements 15085.MISC
HR AMSAT ORBITAL ELEMENTS FOR MANNED AND MISCELLANEOUS SATELLITES FROM WA5QGD FORT WORTH,TX March 26, 2015 BID: ORB15085.M TO ALL RADIO AMATEURS BT
Satellite: HUBBLE Catalog number: 20580 Epoch time: 15085.87388164 Element set: 999 Inclination: 028.4708 degMean motion: 15.07051471 rev/day RA of node: 336.7934 deg Eccentricity: 0.0003237 Arg of perigee: 072.5193 deg Mean anomaly: 021.5918 deg
Decay rate: 3.788e-05 rev/day^2 Epoch rev: 16737 Checksum: 327
Satellite: ISS Catalog number: 25544 Epoch time: 15085.60908606 Element set: 999 Inclination: 051.6463 deg RA of node: 136.5494 deg Eccentricity: 0.0007106 Arg of perigee: 142.3124 deg Mean anomaly: 336.0950 deg Mean motion: 15.55290317 rev/day Decay rate: 1.5649e-04 rev/day^2 Epoch rev: 93518 Checksum: 311
Satellite: CO-58 Catalog number: 28895 Epoch time: 15085.07792659 Element set: 999 Inclination: 097.8228 deg RA of node: 277.1944 deg Eccentricity: 0.0016778 Arg of perigee: 195.8040 deg Mean anomaly: 164.2641 deg Mean motion: 14.62603346 rev/day Decay rate: 1.407e-05 rev/day^2 Epoch rev: 50144 Checksum: 356
Satellite: FALCON Catalog number: 30776 Epoch time: 15085.49413124 Element set: 999 Inclination: 035.4275 deg RA of node: 158.8524 deg Eccentricity: 0.0002797 Arg of perigee: 249.9083 deg Mean anomaly: 225.7848 deg Mean motion: 15.22477611 rev/day Decay rate: 1.2419e-04 rev/day^2 Epoch rev: 44368 Checksum: 337
Satellite: MAST Catalog number: 31126 Epoch time: 15085.86931059 Element set: 999 Inclination: 097.9522 deg RA of node: 057.6901 deg Eccentricity: 0.0090769 Arg of perigee: 191.7736 deg Mean anomaly: 198.5597 deg Mean motion: 14.55906153 rev/day Decay rate: 8.36e-06 rev/day^2 Epoch rev: 42151 Checksum: 349
Satellite: CAPE1 Catalog number: 31130 Epoch time: 15085.13223082 Element set: 999 Inclination: 097.9738 deg RA of node: 054.0467 deg Eccentricity: 0.0096665 Arg of perigee: 213.7220 deg Mean anomaly: 145.7806 deg Mean motion: 14.55296323 rev/day Decay rate: 1.178e-05 rev/day^2 Epoch rev: 42080 Checksum: 304
Satellite: COMPASS Catalog number: 32787 Epoch time: 15085.16217919 Element set: 999 Inclination: 097.6616 deg RA of node: 135.3706 deg Eccentricity: 0.0012296 Arg of perigee: 334.6529 deg Mean anomaly: 025.4084 deg Mean motion: 14.90124975 rev/day Decay rate: 4.438e-05 rev/day^2 Epoch rev: 37414 Checksum: 332
Satellite: AAUSAT2 Catalog number: 32788 Epoch time: 15085.14545210 Element set: 999 Inclination: 097.6619 deg RA of node: 136.7299 deg Eccentricity: 0.0011629 Arg of perigee: 331.5346 deg Mean anomaly: 028.5237 deg Mean motion: 14.91095085 rev/day Decay rate: 4.886e-05 rev/day^2 Epoch rev: 37422 Checksum: 338
Satellite: DO-64 Catalog number: 32789 Epoch time: 15085.15902993 Element set: 999 Inclination: 097.6812 deg RA of node: 146.4509 deg Eccentricity: 0.0010225 Arg of perigee: 305.0994 deg Mean anomaly: 110.2654 deg Mean motion: 14.98402179 rev/day Decay rate: 9.501e-05 rev/day^2 Epoch rev: 37464 Checksum: 337
Satellite: CO-66 Catalog number: 32791 Epoch time: 15085.81430973 Element set: 999 Inclination: 097.6610 deg RA of node: 134.0894 deg Eccentricity: 0.0013184 Arg of perigee: 337.8836 deg Mean anomaly: 022.1811 deg Mean motion: 14.88317679 rev/day Decay rate: 3.661e-05 rev/day^2 Epoch rev: 37406 Checksum: 342
Satellite: RS-30 Catalog number: 32953 Epoch time: 15085.89865158 Element set: 999 Inclination: 082.5068 deg RA of node: 025.4108 deg Eccentricity: 0.0017563 Arg of perigee: 260.5084 deg Mean anomaly: 099.4014 deg Mean motion: 12.43058078 rev/day Decay rate: 1.0e-07 rev/day^2 Epoch rev: 31038 Checksum: 309
Satellite: METEOR-M Catalog number: 35865 Epoch time: 15080.04424789 Element set: 999 Inclination: 098.5102 deg RA of node: 123.5015 deg Eccentricity: 0.0002916 Arg of perigee: 025.5934 deg Mean anomaly: 334.5440 deg Mean motion: 14.22001542 rev/day Decay rate: -2.5e-07 rev/day^2 Epoch rev: 28568 Checksum: 286
Satellite: RS-38 Catalog number: 35869 Epoch time: 15085.79249324 Element set: 999 Inclination: 098.5031 deg RA of node: 128.7209 deg Eccentricity: 0.0004750 Arg of perigee: 005.6313 deg Mean anomaly: 354.4905 deg Mean motion: 14.22280479 rev/day Decay rate: 8.9e-07 rev/day^2 Epoch rev: 28654 Checksum: 339
Satellite: JUGNU Catalog number: 37839 Epoch time: 15085.08029280 Element set: 999 Inclination: 019.9622 deg RA of node: 346.3261 deg Eccentricity: 0.0019113 Arg of perigee: 209.9848 deg Mean anomaly: 285.4615 deg Mean motion: 14.12438680 rev/day Decay rate: 4.91e-06 rev/day^2 Epoch rev: 17845 Checksum: 330
Satellite: SRMSAT Catalog number: 37841 Epoch time: 15085.19123683 Element set: 999 Inclination: 019.9728 deg RA of node: 010.6650 deg Eccentricity: 0.0012045 Arg of perigee: 140.5919 deg Mean anomaly: 008.6407 deg Mean motion: 14.10456050 rev/day Decay rate: 4.68e-06 rev/day^2 Epoch rev: 17822 Checksum: 295
Satellite: RAX-2 Catalog number: 37853 Epoch time: 15085.51445978 Element set: 999 Inclination: 101.7142 deg RA of node: 256.0038 deg Eccentricity: 0.0200542 Arg of perigee: 317.0344 deg Mean anomaly: 077.2213 deg Mean motion: 14.94669835 rev/day Decay rate: 6.136e-05 rev/day^2 Epoch rev: 18475 Checksum: 319
Satellite: AUBIESAT Catalog number: 37854 Epoch time: 15085.47324182 Element set: 999 Inclination: 101.7175 deg RA of node: 258.9932 deg Eccentricity: 0.0197295 Arg of perigee: 312.3633 deg Mean anomaly: 110.1425 deg Mean motion: 14.96616272 rev/day Decay rate: 7.665e-05 rev/day^2 Epoch rev: 18484 Checksum: 333
